LUCAS (JDRS-1) (47202 NORAD) Tracking and Keplerian Element Data
This shows tracking and keplerian element data for the satellite.
Feedback or suggestion? Click here.
Element | Value |
Catalog | 47202 |
Name | LUCAS (JDRS-1) |
Epoch Orbit | 141 |
Epoch Day | 99.94657984 |
Epoch Year | 2021 |
RAAN | 103.7272 |
Inclination | 0.0455 |
Eccentricity | 0.0002874 |
Argument of Perigee | 266.6312 |
Mean Anonmoly | 259.5492 |
Mean Motion | 1.00273532 |
Decay Rate | -2.51E-06 |
L1 | 1 47202U 20089A 21099.94657984 -.00000251 00000-0 00000-0 0 9996 |
L2 | 2 47202 0.0455 103.7272 0002874 266.6312 259.5492 1.00273532 1415 |
Live tracking and technical data element details for LUCAS (JDRS-1) (NORAD 47202). LUCAS (JDRS-1) can be tracked NOW for your location showing map with azimuth and elevation plus other details from your city location.
Track the satellite on the map from your city or location and see movement details for azimuth, elevation, latitude, longitude, range, height, and movement on the map or in text.
IsCatalogInMostPopularTable: catalog: 47202, numindb: 45
Update: records affected: 1
GetName: 47202 LUCAS (JDRS-1)
Hit Count: updated at: Sat, 10 Apr 2021 19:44:20 GMT